Wind_Speed
45 45 45 44 44 44 43 43 43 43 43 43 43 43 41 40 39 39 39 38 38 38 37 37 37 37 38 38 39 39 39 39 38 39 40 40 40 40 42 44 46 48
47 46 46 46 46 46 46 46 45 44 44 44 44 44 44 43 43 42 41 40 40 39 39 39 38 38 38 39 39 40 41 41 41 40 41 41 41 41 41 42 43 45
47 46 46 47 48 49 49 49 48 46 45 45 45 45 45 45 45 44 44 43 42 42 41 41 41 40 41 40 40 40 41 42 43 43 43 43 43 43 42 42 43 43
46 45 45 46 47 49 50 50 50 49 47 46 45 45 45 46 46 46 46 45 45 44 44 43 43 42 43 43 42 42 42 42 43 44 44 45 45 45 45 44 44 45
48 47 46 44 44 47 49 50 51 51 50 48 47 46 46 46 46 46 47 47 46 46 46 46 46 45 45 45 45 45 45 44 44 44 45 45 46 46 47 47 47 47
53 53 50 46 44 44 46 47 48 49 50 50 49 49 48 47 47 47 47 47 47 47 47 47 48 48 48 48 48 47 47 47 47 47 47 46 46 47 47 48 49 49
58 58 56 53 50 48 46 47 47 46 48 50 50 50 51 51 50 50 49 48 48 47 48 49 49 49 50 50 50 50 50 50 50 50 50 49 49 49 49 49 50 50
61 59 58 57 56 54 52 51 48 46 46 47 48 49 52 54 54 53 52 51 50 50 50 51 51 51 51 51 51 51 51 52 52 52 52 52 52 52 52 52 52 52
62 61 58 55 54 54 56 55 51 48 47 48 50 53 55 57 57 56 55 54 53 53 53 53 53 53 53 53 52 53 53 53 53 54 55 55 55 54 54 54 54 54
62 62 60 58 58 59 62 63 60 58 58 59 61 62 61 60 60 58 56 56 56 57 58 57 56 55 54 55 55 54 54 55 55 55 56 57 57 56 56 56 56 56
53 59 62 65 68 69 69 69 67 66 67 68 69 68 64 62 61 59 57 57 58 59 61 62 60 58 57 58 58 57 56 57 57 57 57 57 57 57 58 59 59 58
52 60 65 67 69 70 70 69 69 68 67 68 68 66 62 60 60 59 58 57 59 60 61 62 62 62 62 63 63 61 60 59 59 58 57 58 59 59 59 60 61 61
52 56 61 63 64 64 64 65 64 63 63 63 62 61 59 56 56 57 56 55 57 59 60 61 61 61 63 65 66 66 64 63 61 60 60 60 60 60 61 61 62 63
52 54 57 59 58 57 58 60 59 58 58 58 57 57 56 54 53 53 53 53 53 54 56 57 58 59 60 61 63 66 67 66 64 64 63 63 63 62 62 63 63 64
55 56 57 57 57 57 57 58 59 58 57 56 56 55 55 54 52 52 52 52 51 51 53 54 53 54 56 57 58 61 64 65 65 65 65 65 65 65 65 66 66 65
55 56 56 56 57 57 57 57 58 57 57 57 56 56 55 55 53 52 52 53 52 51 53 53 50 48 50 52 54 57 59 62 63 64 65 65 65 65 66 68 69 68
55 56 56 56 56 56 57 57 57 57 57 57 57 57 57 56 56 55 54 54 54 53 54 54 51 49 50 51 53 55 58 61 62 62 63 65 66 66 65 66 68 69
55 56 56 56 56 56 56 57 57 57 57 58 58 58 58 58 58 58 57 56 56 56 57 57 56 56 55 55 56 57 58 61 64 64 63 65 68 68 67 65 64 64
56 56 56 57 57 58 58 58 59 59 59 59 59 59 59 60 60 60 60 59 59 59 60 61 61 62 63 62 63 63 61 61 64 66 66 67 68 69 70 69 66 63
57 57 58 58 59 59 60 60 60 61 61 61 62 62 61 62 62 62 62 62 62 62 63 64 64 66 68 70 70 70 68 66 66 68 69 69 70 70 71 73 72 69
59 60 60 60 61 61 61 62 62 63 63 63 64 64 64 64 64 64 64 64 64 65 65 66 67 69 72 74 75 75 74 73 72 72 72 72 73 72 73 75 77 76
62 62 63 63 63 63 63 64 64 64 65 65 65 66 66 66 66 66 66 65 66 67 68 69 70 71 73 75 76 77 77 77 76 76 76 77 77 78 78 79 80 81
65 65 66 66 65 65 65 66 66 66 66 66 66 67 67 67 67 67 67 67 68 70 70 71 72 73 74 75 77 78 79 80 79 79 80 81 82 82 83 83 83 84
68 68 69 68 68 68 68 68 68 68 68 68 68 68 68 68 68 68 68 69 70 71 72 73 74 75 75 76 77 78 80 81 81 81 82 83 84 85 86 86 86 87
71 71 71 70 70 70 70 71 71 71 71 71 70 70 69 68 68 68 69 70 71 72 73 74 75 76 77 77 77 78 79 80 81 82 83 83 84 86 87 88 88 89
73 73 73 72 73 73 73 73 73 74 74 73 72 71 70 69 68 68 69 70 71 72 73 74 75 76 77 78 78 78 79 80 80 81 82 83 84 85 87 87 88 89
Wind_Direction
280 280 280 279 279 276 273 270 267 265 264 263 263 262 260 257 256 255 254 253 252 252 252 253 253 253 252 250 249 247 248 249 250 250 250 250 251 250 249 248 248 248
277 277 276 276 276 276 274 272 269 266 264 262 262 261 261 259 257 255 254 253 252 251 250 251 252 251 251 250 250 249 248 248 248 249 250 251 251 250 250 250 249 249
273 271 271 271 272 272 271 271 269 268 266 263 262 261 260 260 259 257 255 254 252 251 250 250 250 250 250 249 249 249 248 248 248 248 249 250 251 251 251 250 250 250
268 266 266 268 269 268 267 267 267 267 266 265 264 262 261 260 259 258 257 256 254 252 251 250 250 249 249 249 249 249 248 248 248 248 248 249 250 251 251 251 250 250
264 263 263 264 265 265 265 264 264 264 265 266 266 265 263 262 260 259 258 257 256 255 254 253 252 251 250 250 249 249 249 249 249 248 248 249 249 250 251 251 250 250
259 260 260 260 260 262 264 263 263 262 263 264 265 266 266 265 264 262 261 259 258 258 257 256 255 254 253 252 251 250 249 249 249 249 249 249 249 249 249 250 250 250
255 256 257 258 258 258 260 262 262 262 261 262 264 265 266 266 265 265 264 263 262 261 260 259 258 257 256 255 254 252 251 250 249 249 249 249 249 249 249 249 249 250
254 255 257 259 258 257 257 258 259 261 262 262 263 265 266 265 264 264 263 263 262 262 260 259 258 258 258 257 256 255 254 252 251 250 249 248 248 248 249 249 249 249
253 253 255 257 257 255 257 259 258 260 263 263 264 268 269 265 262 261 260 260 260 259 258 256 255 256 256 256 256 255 254 254 253 251 250 249 248 248 248 249 249 250
253 252 251 252 253 254 257 262 263 264 266 265 267 270 270 265 260 259 258 257 257 257 257 257 256 255 254 254 253 253 253 253 253 252 251 250 249 248 248 248 249 249
249 251 251 252 255 257 259 263 265 266 267 267 268 270 268 264 260 258 256 255 255 255 256 258 258 257 255 253 252 251 251 252 252 252 252 252 251 250 250 249 249 249
248 251 253 254 257 260 261 263 265 266 266 267 267 268 266 263 261 259 256 254 254 254 255 256 258 258 257 256 255 253 251 251 252 252 252 252 252 252 251 251 250 249
252 253 254 255 257 259 261 262 264 264 264 265 265 265 265 263 261 260 258 256 255 255 256 256 256 257 258 259 260 259 256 255 254 254 253 252 252 252 252 252 252 250
252 253 255 255 256 257 258 259 261 262 262 263 263 264 264 263 262 262 261 259 257 256 257 256 255 255 257 258 261 262 261 259 258 257 255 254 253 253 253 252 252 252
255 255 256 256 256 257 258 259 260 261 261 262 262 263 263 263 262 262 262 261 259 256 254 255 256 257 258 257 258 261 263 263 262 260 257 255 255 255 255 254 252 252
257 257 257 258 258 258 259 260 260 261 261 261 261 261 261 262 261 260 260 260 259 256 252 251 254 257 258 258 257 258 261 263 264 263 262 260 258 257 256 255 254 253
257 257 258 258 258 258 259 259 259 260 260 260 260 260 260 260 260 259 258 258 258 257 253 250 250 253 255 256 257 257 258 259 261 262 264 265 264 261 259 256 255 255
258 258 258 258 258 258 258 258 258 259 259 259 258 258 258 258 258 257 257 256 255 255 254 252 251 251 252 253 254 255 256 257 257 258 260 263 265 265 263 260 257 256
259 259 260 260 260 260 260 260 260 260 259 259 259 259 258 258 257 256 256 255 254 253 253 254 253 253 253 252 252 253 254 255 255 255 256 258 261 263 264 264 261 258
261 261 262 262 262 262 262 262 262 262 261 261 260 260 259 259 259 258 257 256 254 253 253 253 253 254 254 253 253 253 255 256 255 254 253 254 257 259 261 264 265 264
264 264 264 263 263 262 262 262 262 263 263 262 262 261 261 260 259 259 259 258 257 255 254 253 253 253 254 255 255 255 257 258 257 256 254 253 254 257 259 262 264 265
267 266 265 264 264 263 263 263 263 263 262 262 262 262 262 261 261 260 259 259 259 258 257 255 253 252 252 254 255 256 258 258 258 258 257 256 256 257 258 261 262 263
269 269 268 267 267 267 266 265 265 264 263 262 262 262 261 261 261 261 260 259 259 258 258 257 256 255 254 254 255 256 257 257 257 257 257 258 258 258 259 259 260 261
270 270 270 270 270 270 270 269 268 267 265 264 263 262 261 260 260 260 259 259 258 258 257 257 257 257 256 255 255 256 256 257 257 257 257 257 257 258 258 259 259 259
270 271 271 272 272 272 272 271 271 270 269 267 266 264 263 262 261 260 259 258 258 257 257 257 257 257 257 256 256 256 257 257 257 258 258 258 258 258 258 259 259 259
271 272 272 272 272 272 272 272 272 271 271 270 269 267 266 265 264 262 261 259 258 257 257 256 256 257 257 257 257 257 257 258 258 259 259 259 259 259 259 259 259 260
Height
10579 10578 10576 10575 10575 10575 10575 10575 10576 10577 10579 10580 10581 10582 10583 10584 10584 10584 10584 10584 10584 10585 10585 10585 10585 10585 10586 10586 10587 10588 10588 10589 10590 10591 10592 10593 10594 10596 10597 10599 10601 10603
10573 10573 10571 10569 10569 10569 10569 10569 10570 10571 10572 10574 10575 10576 10578 10579 10580 10580 10580 10581 10581 10581 10581 10581 10581 10581 10581 10582 10582 10583 10584 10585 10586 10586 10587 10588 10590 10591 10592 10594 10595 10597
10567 10567 10565 10564 10563 10563 10563 10562 10563 10565 10566 10567 10569 10570 10572 10573 10574 10575 10576 10576 10577 10577 10577 10577 10577 10577 10577 10577 10578 10578 10579 10580 10581 10581 10582 10583 10585 10586 10587 10589 10590 10591
10561 10560 10559 10558 10557 10556 10556 10556 10557 10558 10560 10561 10562 10564 10566 10566 10567 10569 10570 10571 10571 10572 10572 10572 10572 10572 10572 10572 10573 10573 10574 10575 10575 10576 10577 10578 10579 10580 10582 10583 10584 10585
10554 10553 10553 10553 10551 10549 10549 10549 10550 10552 10554 10556 10557 10558 10559 10560 10561 10562 10563 10564 10565 10566 10566 10566 10566 10566 10567 10567 10567 10568 10569 10569 10570 10571 10572 10573 10574 10575 10576 10577 10578 10579
10548 10546 10546 10546 10545 10544 10543 10543 10545 10547 10548 10550 10551 10552 10552 10553 10554 10555 10556 10557 10559 10560 10560 10560 10560 10560 10560 10561 10561 10562 10563 10564 10565 10565 10566 10567 10568 10569 10570 10570 10571 10572
10541 10540 10539 10539 10539 10539 10537 10537 10539 10542 10543 10544 10545 10546 10546 10547 10547 10548 10549 10550 10551 10552 10552 10552 10552 10552 10552 10553 10554 10555 10556 10557 10558 10559 10560 10561 10562 10562 10563 10564 10565 10566
10535 10534 10533 10532 10533 10533 10532 10532 10534 10536 10538 10539 10539 10540 10540 10540 10541 10542 10543 10543 10544 10543 10543 10543 10543 10543 10544 10545 10546 10547 10548 10549 10551 10552 10553 10554 10555 10555 10556 10558 10558 10559
10528 10528 10526 10525 10524 10525 10525 10526 10529 10531 10532 10533 10532 10532 10533 10533 10533 10535 10536 10537 10536 10534 10533 10533 10534 10534 10535 10536 10536 10537 10538 10540 10541 10543 10544 10545 10547 10548 10550 10551 10551 10552
10520 10519 10519 10517 10515 10514 10515 10518 10522 10524 10525 10525 10524 10524 10525 10524 10525 10527 10530 10530 10528 10527 10525 10526 10527 10527 10527 10527 10527 10528 10529 10531 10532 10534 10535 10537 10539 10541 10542 10543 10544 10545
10512 10511 10511 10509 10506 10507 10508 10511 10515 10516 10516 10516 10515 10516 10517 10516 10517 10520 10522 10522 10521 10520 10519 10519 10520 10521 10520 10518 10518 10519 10521 10522 10524 10526 10528 10529 10531 10533 10534 10535 10536 10537
10505 10504 10503 10502 10501 10501 10503 10505 10507 10508 10508 10507 10507 10508 10509 10509 10509 10511 10514 10514 10512 10512 10512 10512 10513 10513 10512 10509 10509 10511 10514 10515 10517 10520 10521 10522 10523 10524 10525 10526 10527 10529
10499 10496 10494 10495 10495 10496 10497 10498 10499 10500 10501 10500 10500 10500 10501 10502 10502 10503 10505 10506 10505 10504 10504 10505 10507 10507 10504 10502 10501 10502 10506 10509 10511 10513 10514 10515 10515 10516 10517 10517 10518 10520
10490 10488 10487 10488 10488 10489 10490 10491 10492 10493 10493 10494 10494 10493 10493 10495 10495 10496 10496 10497 10497 10498 10497 10497 10498 10498 10497 10497 10495 10493 10496 10501 10504 10505 10506 10507 10508 10509 10510 10510 10510 10511
10481 10480 10480 10481 10481 10482 10483 10484 10485 10485 10486 10486 10486 10487 10487 10487 10488 10489 10489 10489 10489 10491 10491 10490 10490 10490 10490 10490 10489 10487 10487 10489 10493 10495 10496 10499 10501 10501 10502 10502 10502 10504
10473 10472 10472 10473 10474 10475 10475 10476 10477 10477 10478 10478 10479 10479 10479 10480 10481 10481 10481 10481 10482 10483 10485 10484 10483 10482 10483 10483 10482 10482 10481 10481 10482 10483 10485 10488 10491 10492 10493 10494 10494 10495
10464 10464 10464 10465 10466 10467 10467 10468 10468 10469 10469 10470 10470 10471 10472 10472 10473 10473 10473 10474 10474 10475 10477 10477 10476 10475 10475 10475 10475 10476 10476 10474 10474 10474 10476 10477 10479 10481 10483 10484 10485 10486
10456 10456 10456 10457 10457 10458 10459 10459 10460 10460 10460 10461 10462 10463 10464 10464 10465 10465 10465 10466 10467 10468 10468 10469 10469 10468 10467 10467 10467 10467 10467 10468 10467 10467 10469 10468 10467 10468 10470 10472 10475 10477
10447 10447 10448 10448 10448 10449 10449 10450 10451 10451 10452 10452 10453 10453 10454 10455 10456 10457 10457 10458 10459 10460 10460 10461 10461 10461 10459 10458 10457 10456 10457 10460 10459 10459 10461 10460 10459 10459 10459 10459 10463 10466
10438 10438 10439 10439 10439 10439 10440 10440 10441 10441 10442 10442 10443 10444 10445 10445 10446 10447 10448 10449 10451 10451 10452 10453 10454 10452 10450 10447 10447 10446 10447 10450 10451 10451 10452 10452 10451 10452 10451 10450 10452 10455
10428 10428 10428 10429 10429 10429 10430 10430 10431 10431 10432 10432 10432 10433 10434 10435 10437 10438 10439 10440 10441 10442 10443 10444 10444 10443 10439 10436 10437 10438 10439 10440 10441 10441 10443 10444 10445 10445 10445 10444 10444 10445
10416 10416 10417 10417 10418 10419 10419 10420 10421 10421 10422 10422 10422 10423 10423 10425 10426 10428 10429 10431 10431 10430 10430 10431 10432 10432 10430 10428 10429 10430 10430 10430 10431 10432 10433 10435 10436 10436 10436 10437 10437 10436
10403 10404 10404 10405 10406 10407 10408 10409 10410 10410 10410 10411 10412 10412 10413 10414 10416 10417 10420 10420 10419 10418 10418 10418 10418 10419 10420 10420 10420 10420 10420 10420 10422 10423 10423 10423 10424 10425 10425 10427 10427 10426
10392 10391 10392 10394 10395 10396 10396 10396 10397 10397 10398 10399 10400 10401 10402 10404 10406 10408 10409 10408 10407 10406 10406 10406 10405 10406 10408 10409 10409 10409 10408 10409 10411 10412 10412 10413 10413 10413 10413 10414 10415 10415
10381 10381 10381 10382 10383 10383 10383 10383 10383 10383 10384 10385 10387 10388 10390 10393 10395 10397 10397 10396 10395 10395 10395 10395 10395 10394 10395 10396 10398 10398 10398 10398 10399 10400 10401 10402 10402 10402 10401 10401 10402 10403
10369 10370 10370 10371 10371 10372 10372 10371 10371 10370 10370 10371 10373 10375 10377 10381 10384 10384 10384 10384 10383 10383 10383 10384 10384 10384 10384 10385 10386 10387 10388 10388 10389 10389 10390 10390 10390 10390 10389 10390 10391 10391